KASTKHQM

Guest
Details From KAST - Astoria Rgnl
To KHQM - BOWERMAN
Flight Number -
Tags generated
Created
Modified
Stats Distance 49 nm / 91 km
Max Altitude 0 ft / 0 m
Waypoints 3
Social Downloads 0
Likes 0
Share VATSIM

Download

Looking for another format? Having issues loading an existing format? Contact us
Advertisement - Login to hide

Notes

Basic altitude profile: - Ascent Rate: 2500ft/min - Ascent Speed: 250kts - Cruise Altitude: 35000ft - Cruise Speed: 420kts - Descent Rate: 1500ft/min - Descent Speed: 250kts Options: - Use NATs: no - Use PACOTS: no - Use low airways: yes - Use high airways: no

Route

KAST AST KHQM

ID Type Via Altitude Latitude Longitude Leg Dist Tot Dist Heading (true) Name
O KAST APT - 0 ft / 0 m 46.15789˚ -123.87872˚ - 0 nm - Astoria Rgnl
AST VOR - 0 ft / 0 m 46.16169˚ -123.88039˚ 0 nm 0 nm 343° / 343° ASTORIA VOR-DME
O KHQM APT - 0 ft / 0 m 46.97120˚ -123.93656˚ 48 nm 48 nm 357° / 357° BOWERMAN

Altitude Profile

Advertisement - Login to hide

KAST

Details ICAO KAST (AST)
Name Astoria Rgnl
Region United States
Timezone America/Los_Angeles (UTC-7.0)
Stats Elevation 15 ft / 5 m (AMSL)
Location 46.157894° -123.878724°
Runways 2
Magnetic Variation 15.575° E

METAR

KAST 272255Z AUTO 31013G18KT 10SM CLR 18/08 A3024 RMK AO2 SLP238 T01780083

Decode

TAF

TAF AMD KAST 272044Z 2721/2818 29010KT P6SM SKC FM280400 29008KT P6SM BKN015 FM280600 29004KT P6SM OVC011 FM281000 29004KT P6SM OVC009 FM281600 31006KT P6SM OVC015

Decode

Departure Runways

ID Width Length Bearing (true) Bearing (mag) Surface Threshold Offset Overrun Length
08 98 ft / 30 m 5,779 ft / 1,762 m 95.49° 79.92° Asphalt 302 ft / 92 m 0 ft / 0 m
13 98 ft / 30 m 4,997 ft / 1,523 m 153.70° 138.13° Asphalt 328 ft / 100 m 0 ft / 0 m
26 98 ft / 30 m 5,779 ft / 1,762 m 275.51° 259.94° Asphalt 705 ft / 215 m 0 ft / 0 m
31 98 ft / 30 m 4,997 ft / 1,523 m 333.70° 318.13° Asphalt 203 ft / 62 m 0 ft / 0 m

KHQM

Details ICAO KHQM
Name BOWERMAN
Region United States
Timezone America/Los_Angeles (UTC-7.0)
Stats Elevation 18 ft / 5 m (AMSL)
Location 46.971196° -123.936564°
Runways 1
Magnetic Variation 15.777° E

METAR

KHQM 272253Z AUTO 25013KT 9SM CLR 17/10 A3024 RMK AO2 SLP244 T01720100

Decode

TAF

KHQM 271747Z 2718/2818 25011G18KT P6SM SKC FM280300 26006KT P6SM SCT009 OVC012

Decode

Destination Runways

ID Width Length Bearing (true) Bearing (mag) Surface Threshold Offset Overrun Length
06 151 ft / 46 m 4,987 ft / 1,520 m 79.79° 64.01° Asphalt 0 ft / 0 m 0 ft / 0 m
24 151 ft / 46 m 4,987 ft / 1,520 m 259.81° 244.03° Asphalt 0 ft / 0 m 0 ft / 0 m

Approach Navaids

Runway Type Ident Frequency Range Bearing (true) Bearing (mag) Slope Elevation
24 Localiser IHQM 108.70 MHz 18 nm / 33 km 259.79° 244.02° - 18 ft / 5 m (AMSL)
24 Glidescope IHQM 108.70 MHz 10 nm / 19 km 259.80° 244.02° 3.00° 18 ft / 5 m (AMSL)
24 DME IHQM 108.70 MHz 18 nm / 33 km - - - 18 ft / 5 m (AMSL)

Popular Alternatives